DELTA 1 DEB, 2775

Orbit data source: Space-Track

DELTA 1 DEB, 2775 is space debris in SSO originally from a launch on Sun, 02 Oct 1966 UTC launched from the Air Force Western Test Range (AFWTR). Debris objects in space refer to the collection of defunct objects orbiting the Earth. Examples of debris include non-operational satellites, rocket bodies, and fragments generated from explosions, collisions, or faulty payload assembly.

Loading next visibility...
Identifier
2775, 1966-087D
Orbit
SSO
Last TLE update
2 weeks ago
Origin
Manufacturer
Unknown
Mission
Spacecraft
Bus & Motor
Unknown
Mass
1 kg wet, 1 kg dry
Launch date (UTC)
1966-10-02 (59 years ago)
Launch vehicle
Unknown
Launch site
Air Force Western Test Range (AFWTR)
Object type
Payload
Rocket body
Debris
Shape & HBR
Cyl + 1 Cable, 3.5 m
Radar Cross Section
3.500 m², Small (<0.1 m²)

Expand to show TLE details & history

TLE from 2 weeks ago
0 DELTA 1 DEB
1 02775U 66087D   25117.00424993  .00000009  00000-0  24770-3 0  9997
2 02775 100.9320 135.7212 0124160 263.2851 123.7644 12.71681474717430
Epoch: 2025-04-27T00:06Z
Definitive object data (Epoch: 2025-04-27T00:06:07.193Z)
Latitude
27.7049°
Longitude
-86.8402°
Altitude
1,432.585 km
Speed
7.122 km/s
True Right ascension
08h 39m 42s
True Declination
27° 34' 33"
Sunlit
Object was in daylight at TLE epoch
Visualization TLE readout
Latitude
-35.44278°
Longitude
102.82842°
Altitude
1,298.783 km
Speed
7.248 km/s
Apparent Right ascension
00h 01m 23s
Apparent Declination
-48° 47' 47"
Sunlit
Object is in daylight
Visualization observer readout
Local Sidereal Time
15:47:31
Azimuth
122.044° SE
Elevation
-49.587°
Doppler factor
1
Orbital elements
Apogee altitude
1,468.802 km
Perigee altitude
1,276.336 km
Semi-major axis
7,750.706 km
Eccentricity
0.012416
Inclination
100.932°
RAAN
135.7212°
Arg. of periapsis
263.2851°
True anomaly
124.93699°
Mean anomaly
123.7644°
Eccentric anomaly
124.35171°
Mean motion
3.18076 °/min
BSTAR
0.0002477
Orbital period
113.18 mins
Loading maneuver chart data...
Loading SW <> Apogee altitude chart data...
Loading historical data...
Loading historical data...
Loading historical data...
Loading historical data...
Loading historical data...
Loading historical data...
Loading historical data...
Other satellites on launch #87 in the year 1966 (1966-10-02 UTC)

DELTA 1 DEB Visibility forecast

Observer location: undefined°, undefined°

Span
Click to sort rows by Start time (UTC) header in descending order
Start Az.
Max El. time (UTC)
Max El. Az.
Max El.
End time (UTC)
End Az.
12 mins2025-05-09 12:49:29.416Z42.109° NE2025-05-09 12:55:29.416Z95.259° ESE24.851°2025-05-09 13:01:29.416Z148.096° SSE
14 mins2025-05-09 14:40:29.416Z7.643° NNE2025-05-09 14:47:29.416Z280.992° WNW41.235°2025-05-09 14:54:29.416Z215.328° SW
5 mins2025-05-09 16:34:29.416Z330.465° NNW2025-05-09 16:36:29.416Z315.145° NNW13.118°2025-05-09 16:39:29.416Z292.043° WNW
12 mins2025-05-09 23:39:29.416Z108.902° ESE2025-05-09 23:44:29.416Z61.457° ENE28.396°2025-05-09 23:51:29.416Z1.899° NNE
15 mins2025-05-10 01:28:29.416Z180.912° SSW2025-05-10 01:35:29.416Z258.868° W40.926°2025-05-10 01:43:29.416Z336.261° NNW
|